DW5450 Weather Reports


Display with metric or nautical units.
time (UTC)temp
F
wind
direction
speed
MPH
gust
MPH
rain 1hr
in
rain 24hr
in
rain mn
in
humidity
%
barometer
mb
20260507063042 72 143 0.0 0.0 0.00 0.00 0.00 86 1012.1
20260507061537 72 143 0.0 0.0 0.00 0.00 0.00 85 1012.2
20260507060038 73 143 0.0 0.0 0.00 0.00 0.00 85 1012.3
20260507054532 73 143 0.0 0.0 0.00 0.00 0.00 85 1012.3
20260507053036 73 143 0.0 0.0 0.00 0.00 0.00 85 1012.4
20260507051532 74 143 0.0 0.0 0.00 0.00 0.00 84 1012.5
20260507050035 74 143 0.0 0.0 0.00 0.00 0.00 84 1012.6
20260507044532 74 143 0.0 1.0 0.00 0.00 0.00 84 1012.5
20260507043032 75 143 0.0 0.0 0.00 0.00 0.00 83 1012.4
20260507041541 75 143 0.0 0.0 0.00 0.00 0.00 83 1012.3
20260507040032 75 143 0.0 1.0 0.00 0.00 0.00 82 1012.4
20260507034537 76 143 1.0 3.0 0.00 0.00 0.00 82 1012.4
20260507033029 76 144 0.0 2.0 0.00 0.00 0.00 82 1012.4
20260507031528 76 143 0.0 3.0 0.00 0.00 0.00 81 1012.2
20260507030028 76 154 0.0 4.0 0.00 0.00 0.00 81 1012.1
20260507024530 76 149 1.0 4.0 0.00 0.00 0.00 80 1012.0
20260507023026 77 119 0.0 3.0 0.00 0.00 0.00 80 1011.9
20260507021526 77 168 0.0 3.0 0.00 0.00 0.00 79 1011.9
20260507020030 77 169 1.0 5.0 0.00 0.00 0.00 79 1011.9
20260507014526 77 148 1.0 5.0 0.00 0.00 0.00 79 1011.9
20260507013025 78 165 2.0 7.0 0.00 0.00 0.00 78 1011.9
20260507011526 78 140 1.0 6.0 0.00 0.00 0.00 77 1011.8
20260507010032 78 165 2.0 6.0 0.00 0.00 0.00 77 1011.7
20260507004523 78 144 2.0 6.0 0.00 0.00 0.00 77 1011.7
20260507003023 79 107 2.0 8.0 0.00 0.00 0.00 76 1011.6
20260507001529 80 186 4.0 7.0 0.00 0.00 0.00 75 1011.6
20260507000027 80 150 4.0 9.0 0.00 0.00 0.00 75 1011.5
20260506234541 80 184 2.0 8.0 0.00 0.00 0.00 75 1011.5
20260506233022 81 141 5.0 10.0 0.00 0.00 0.00 75 1011.6
20260506231521 80 147 2.0 7.0 0.00 0.00 0.00 76 1011.5
20260506230020 81 171 3.0 8.0 0.00 0.00 0.00 75 1011.7
20260506224526 81 143 2.0 9.0 0.00 0.00 0.00 75 1011.6
20260506223021 82 123 3.0 12.0 0.00 0.00 0.00 75 1011.7
20260506221519 82 113 4.0 10.0 0.00 0.00 0.00 74 1011.7
20260506220031 82 153 4.0 14.0 0.00 0.00 0.00 74 1011.9
20260506214518 83 109 4.0 12.0 0.00 0.00 0.00 75 1012.0
20260506213017 82 151 6.0 11.0 0.00 0.00 0.00 75 1012.0
20260506211520 82 180 5.0 13.0 0.00 0.00 0.00 75 1012.2
20260506210017 82 170 6.0 11.0 0.00 0.00 0.00 75 1012.3
20260506204516 82 118 6.0 11.0 0.00 0.00 0.00 75 1012.4
20260506203016 82 214 5.0 11.0 0.00 0.00 0.00 75 1012.5
20260506201516 82 161 4.0 11.0 0.00 0.00 0.00 75 1012.7
20260506200014 82 111 4.0 12.0 0.00 0.00 0.00 75 1012.9
20260506194514 82 160 5.0 13.0 0.00 0.00 0.00 75 1013.1
20260506193012 82 166 4.0 12.0 0.00 0.00 0.00 74 1013.1
20260506191512 83 119 5.0 10.0 0.00 0.00 0.00 74 1013.2
20260506190012 83 117 6.0 14.0 0.00 0.00 0.00 72 1013.2
20260506184511 83 125 6.0 12.0 0.00 0.00 0.00 71 1013.4
20260506183010 83 174 4.0 11.0 0.00 0.00 0.00 71 1013.4
20260506181510 84 155 4.0 12.0 0.00 0.00 0.00 70 1013.5
20260506180009 83 161 4.0 11.0 0.00 0.00 0.00 70 1013.5
20260506174507 83 143 3.0 10.0 0.00 0.00 0.00 70 1013.4
20260506173007 83 141 4.0 9.0 0.00 0.00 0.00 67 1013.3
20260506171507 85 132 4.0 9.0 0.00 0.00 0.00 65 1013.3
20260506170006 85 213 3.0 11.0 0.00 0.00 0.00 64 1013.3
20260506164508 86 148 4.0 7.0 0.00 0.00 0.00 59 1013.3
20260506163001 85 291 0.0 5.0 0.00 0.00 0.00 59 1013.3
20260506161600 84 42 2.0 5.0 0.00 0.00 0.00 62 1013.1
20260506160108 83 68 1.0 10.0 0.00 0.00 0.00 67 1013.2
20260506154550 81 296 1.0 5.0 0.00 0.00 0.00 70 1013.1
20260506153046 80 45 2.0 6.0 0.00 0.00 0.00 71 1013.0
20260506151545 79 28 2.0 7.0 0.00 0.00 0.00 76 1013.0
20260506150039 78 22 2.0 5.0 0.00 0.00 0.00 79 1013.0
20260506144534 75 20 1.0 5.0 0.00 0.00 0.00 83 1013.0
20260506143034 72 328 0.0 3.0 0.00 0.00 0.00 85 1012.9
20260506141527 70 344 1.0 3.0 0.00 0.00 0.00 87 1012.8
20260506140022 68 334 0.0 3.0 0.00 0.00 0.00 88 1012.8
20260506134524 66 321 0.0 2.0 0.00 0.00 0.00 88 1012.7
20260506133022 65 321 0.0 2.0 0.00 0.00 0.00 88 1012.6
20260506131538 65 321 0.0 1.0 0.00 0.00 0.00 88 1012.4
20260506130033 65 321 0.0 3.0 0.00 0.00 0.00 88 1012.5
20260506124517 66 321 0.0 3.0 0.00 0.00 0.00 88 1012.4
20260506123015 65 315 1.0 3.0 0.00 0.00 0.00 88 1012.3
20260506121512 66 311 1.0 5.0 0.00 0.00 0.00 88 1011.9
20260506120016 66 306 2.0 4.0 0.00 0.00 0.00 88 1011.6
20260506114509 66 304 1.0 4.0 0.00 0.00 0.00 88 1011.5
20260506113009 66 309 0.0 5.0 0.00 0.00 0.00 88 1011.5
20260506111508 66 313 2.0 6.0 0.00 0.00 0.00 88 1011.2
20260506110007 66 9 0.0 2.0 0.00 0.00 0.00 88 1011.1
20260506104507 66 9 0.0 2.0 0.00 0.00 0.00 88 1011.0
20260506103006 66 9 1.0 3.0 0.00 0.00 0.00 88 1011.0
20260506101506 66 57 0.0 2.0 0.00 0.00 0.00 88 1010.9
20260506100004 66 59 0.0 2.0 0.00 0.00 0.00 88 1011.0
20260506094503 66 59 0.0 1.0 0.00 0.00 0.00 88 1011.0
20260506093004 66 59 0.0 2.0 0.00 0.00 0.00 88 1011.1
20260506091501 66 59 0.0 1.0 0.00 0.00 0.00 88 1011.2
20260506090059 66 59 0.0 0.0 0.00 0.00 0.00 87 1011.2
20260506084557 67 59 0.0 1.0 0.00 0.00 0.00 87 1011.2
20260506083058 68 59 0.0 0.0 0.00 0.00 0.00 87 1011.2
20260506081556 68 59 0.0 0.0 0.00 0.00 0.00 87 1011.2
20260506073048 68 59 1.0 2.0 0.00 0.00 0.00 87 1011.5
20260506071548 68 59 1.0 3.0 0.00 0.00 0.00 87 1011.5